EW4719 Weather Reports


Display with metric or nautical units.
time (UTC)temp
F
wind
direction
speed
MPH
gust
MPH
rain 1hr
in
rain 24hr
in
rain mn
in
humidity
%
barometer
mb
20260510233101 46 306 5.0 15.0 0.01 0.01 0.01 85 1011.3
20260510233050 46 0.0 0.0 0.00 0.00 0.00 84 1010.8
20260510231611 46 245 4.0 11.0 0.00 0.00 0.00 84 1011.2
20260510231552 46 0.0 0.0 0.00 0.00 0.00 83 1010.7
20260510230111 46 239 4.0 9.0 0.00 0.00 0.00 84 1011.3
20260510230049 46 0.0 0.0 0.00 0.00 0.00 83 1010.8
20260510224551 46 0.0 0.0 0.00 0.00 0.00 82 1010.9
20260510224507 46 284 6.0 14.0 0.00 0.00 0.00 83 1011.3
20260510223045 46 0.0 0.0 0.00 0.00 0.00 82 1011.0
20260510223006 46 251 6.0 12.0 0.00 0.00 0.00 83 1011.5
20260510221549 46 0.0 0.0 0.00 0.00 0.00 82 1011.2
20260510221544 46 255 5.0 13.0 0.00 0.00 0.00 83 1011.7
20260510220131 46 248 6.0 16.0 0.00 0.00 0.00 83 1011.8
20260510220053 46 0.0 0.0 0.00 0.00 0.00 82 1011.2
20260510214600 46 224 7.0 14.0 0.00 0.00 0.00 82 1011.6
20260510214552 46 0.0 0.0 0.00 0.00 0.00 82 1011.1
20260510213120 46 266 5.0 15.0 0.00 0.00 0.00 82 1011.9
20260510213053 47 0.0 0.0 0.00 0.00 0.00 81 1011.3
20260510211545 47 0.0 0.0 0.00 0.00 0.00 80 1011.3
20260510211538 46 5 6.0 17.0 0.00 0.00 0.00 80 1011.9
20260510210052 47 0.0 0.0 0.00 0.00 0.00 79 1011.5
20260510204604 47 253 7.0 16.0 0.00 0.00 0.00 79 1012.1
20260510204552 47 0.0 0.0 0.00 0.00 0.00 78 1011.6
20260510203126 47 246 5.0 19.0 0.00 0.00 0.00 78 1012.3
20260510203050 47 0.0 0.0 0.00 0.00 0.00 77 1011.8
20260510201547 47 0.0 0.0 0.00 0.00 0.00 76 1012.1
20260510201502 47 252 8.0 17.0 0.00 0.00 0.00 77 1012.7
20260510200049 48 0.0 0.0 0.00 0.00 0.00 75 1012.3
20260510200006 47 289 8.0 17.0 0.00 0.00 0.00 75 1012.9
20260510194603 48 263 8.0 16.0 0.00 0.00 0.00 74 1013.0
20260510194553 48 0.0 0.0 0.00 0.00 0.00 73 1012.4
20260510193114 48 293 6.0 16.0 0.00 0.00 0.00 72 1013.3
20260510193053 48 0.0 0.0 0.00 0.00 0.00 72 1012.8
20260510191550 49 0.0 0.0 0.00 0.00 0.00 70 1013.0
20260510191511 48 257 6.0 15.0 0.00 0.00 0.00 71 1013.5
20260510190054 49 0.0 0.0 0.00 0.00 0.00 69 1013.2
20260510190007 49 273 6.0 15.0 0.00 0.00 0.00 70 1013.7
20260510184612 49 0.0 0.0 0.00 0.00 0.00 68 1013.2
20260510184535 49 296 7.0 25.0 0.00 0.00 0.00 69 1013.6
20260510183052 49 0.0 0.0 0.00 0.00 0.00 68 1013.4
20260510181600 50 0.0 0.0 0.00 0.00 0.00 67 1013.8
20260510181550 49 320 7.0 15.0 0.00 0.00 0.00 68 1014.3
20260510180122 50 292 8.0 16.0 0.00 0.00 0.00 68 1014.4
20260510180105 50 0.0 0.0 0.00 0.00 0.00 68 1013.9
20260510174607 50 267 6.0 12.0 0.00 0.00 0.00 68 1014.6
20260510174547 50 0.0 0.0 0.00 0.00 0.00 68 1014.2
20260510173002 50 303 7.0 15.0 0.00 0.00 0.00 67 1014.8
20260510171529 51 257 7.0 12.0 0.00 0.00 0.00 66 1015.0
20260510170015 52 275 8.0 15.0 0.00 0.00 0.00 64 1015.1
20260510164556 52 248 6.0 15.0 0.00 0.00 0.00 62 1015.4
20260510163124 53 308 6.0 13.0 0.00 0.00 0.00 61 1015.5
20260510161605 53 245 5.0 15.0 0.00 0.00 0.00 59 1015.7
20260510160125 55 240 5.0 18.0 0.00 0.00 0.00 57 1016.0
20260510160107 55 0.0 0.0 0.00 0.00 0.00 58 1015.7
20260510154619 54 0.0 0.0 0.00 0.00 0.00 54 1016.0
20260510154529 54 291 5.0 12.0 0.00 0.00 0.00 55 1016.4
20260510153101 55 0.0 0.0 0.00 0.00 0.00 52 1016.2
20260510151552 55 315 4.0 10.0 0.00 0.00 0.00 53 1016.9
20260510151547 55 0.0 0.0 0.00 0.00 0.00 52 1016.5
20260510150120 55 302 4.0 18.0 0.00 0.00 0.00 53 1017.1
20260510150106 55 0.0 0.0 0.00 0.00 0.00 51 1016.7
20260510144610 56 0.0 0.0 0.00 0.00 0.00 50 1017.1
20260510143118 55 241 7.0 16.0 0.00 0.00 0.00 50 1017.8
20260510143053 55 0.0 0.0 0.00 0.00 0.00 48 1017.4
20260510141613 55 262 4.0 12.0 0.00 0.00 0.00 50 1018.1
20260510141549 55 0.0 0.0 0.00 0.00 0.00 49 1017.8
20260510140120 56 149 6.0 11.0 0.00 0.00 0.00 50 1018.3
20260510140048 56 0.0 0.0 0.00 0.00 0.00 49 1018.0
20260510134550 56 0.0 0.0 0.00 0.00 0.00 50 1018.2
20260510134526 56 234 4.0 13.0 0.00 0.00 0.00 50 1018.6
20260510133120 55 289 3.0 9.0 0.00 0.00 0.00 50 1018.8
20260510133045 55 0.0 0.0 0.00 0.00 0.00 50 1018.4
20260510131547 56 0.0 0.0 0.00 0.00 0.00 47 1018.6
20260510131532 56 319 4.0 12.0 0.00 0.00 0.00 47 1019.0
20260510130051 55 280 4.0 15.0 0.00 0.00 0.00 48 1019.3
20260510130045 55 0.0 0.0 0.00 0.00 0.00 48 1018.9
20260510124549 55 254 4.0 11.0 0.00 0.00 0.00 47 1019.5
20260510123107 54 259 2.0 11.0 0.00 0.00 0.00 49 1019.8
20260510123054 55 0.0 0.0 0.00 0.00 0.00 47 1019.4
20260510121549 54 235 5.0 18.0 0.00 0.00 0.00 49 1020.0
20260510120107 53 261 3.0 9.0 0.00 0.00 0.00 49 1020.1
20260510114554 54 259 4.0 10.0 0.00 0.00 0.00 50 1020.4
20260510113128 53 257 2.0 10.0 0.00 0.00 0.00 49 1020.6
20260510111600 52 296 3.0 9.0 0.00 0.00 0.00 52 1020.8
20260510110114 50 326 2.0 13.0 0.00 0.00 0.00 53 1021.0
20260510110051 51 0.0 0.0 0.00 0.00 0.00 52 1020.4
20260510104602 52 244 4.0 14.0 0.00 0.00 0.00 55 1021.3
20260510104559 52 0.0 0.0 0.00 0.00 0.00 53 1020.6
20260510103122 49 275 4.0 11.0 0.00 0.00 0.00 56 1021.5
20260510103051 50 0.0 0.0 0.00 0.00 0.00 56 1020.8
20260510101555 51 0.0 0.0 0.00 0.00 0.00 57 1021.0
20260510101509 51 309 4.0 10.0 0.00 0.00 0.00 57 1021.6
20260510100053 51 0.0 0.0 0.00 0.00 0.00 60 1021.1
20260510100003 51 296 5.0 11.0 0.00 0.00 0.00 60 1021.8
20260510094600 51 0.0 0.0 0.00 0.00 0.00 63 1021.3
20260510094534 50 271 5.0 14.0 0.00 0.00 0.00 63 1022.0
20260510093110 50 291 3.0 10.0 0.00 0.00 0.00 68 1022.2
20260510093053 50 0.0 0.0 0.00 0.00 0.00 68 1021.5
20260510091557 48 272 4.0 10.0 0.00 0.00 0.00 70 1022.4
20260510091550 48 0.0 0.0 0.00 0.00 0.00 70 1021.7
20260510090108 49 262 4.0 8.0 0.00 0.00 0.00 71 1022.6
20260510090048 49 0.0 0.0 0.00 0.00 0.00 70 1022.0
20260510084558 48 0.0 0.0 0.00 0.00 0.00 71 1022.2
20260510084553 47 211 5.0 15.0 0.00 0.01 0.00 72 1022.8
20260510083108 47 315 4.0 10.0 0.00 0.01 0.00 70 1023.0
20260510083103 47 0.0 0.0 0.00 0.00 0.00 69 1022.3
20260510081621 45 249 3.0 9.0 0.00 0.01 0.00 70 1023.2
20260510081611 46 0.0 0.0 0.00 0.00 0.00 70 1022.5
20260510080046 44 0.0 0.0 0.00 0.00 0.00 77 1022.8
20260510074600 43 0.0 0.0 0.00 0.00 0.00 82 1022.9
20260510074548 43 246 3.0 9.0 0.00 0.09 0.00 82 1023.6
20260510073107 42 336 1.0 6.0 0.00 0.09 0.00 87 1023.6
20260510073051 42 0.0 0.0 0.00 0.00 0.00 86 1022.9
20260510071546 41 325 2.0 5.0 0.00 0.09 0.00 87 1023.7
20260510070106 41 319 1.0 4.0 0.00 0.09 0.00 89 1023.8
20260510070051 41 0.0 0.0 0.00 0.00 0.00 88 1023.1
20260510064559 40 323 3.0 5.0 0.00 0.20 0.00 90 1024.0
20260510064548 41 0.0 0.0 0.00 0.00 0.00 90 1023.2
20260510063114 40 292 1.0 4.0 0.00 0.20 0.00 92 1024.0
20260510063047 40 0.0 0.0 0.00 0.00 0.00 92 1023.3
20260510061603 39 320 1.0 3.0 0.00 0.20 0.00 92 1024.1
20260510061556 39 0.0 0.0 0.00 0.00 0.00 92 1023.4
20260510060144 38 0.0 0.0 0.00 0.00 0.00 93 1023.3
20260510060115 38 328 1.0 3.0 0.00 0.20 0.00 93 1024.0
20260510054610 36 33 0.0 1.0 0.00 0.20 0.00 92 1024.1
20260510054548 36 0.0 0.0 0.00 0.00 0.00 92 1023.4
20260510053057 36 0.0 0.0 0.00 0.00 0.00 91 1023.5
20260510053005 35 33 0.0 0.0 0.00 0.20 0.00 92 1024.3
20260510051547 35 0.0 0.0 0.00 0.00 0.00 91 1023.6
20260510051545 34 350 0.0 0.0 0.00 0.20 0.00 91 1024.3
20260510050113 35 350 0.0 0.0 0.00 0.20 0.00 91 1024.5
20260510050048 35 0.0 0.0 0.00 0.00 0.00 91 1023.6
20260510044607 34 350 0.0 0.0 0.00 0.20 0.00 91 1024.5
20260510044551 34 0.0 0.0 0.00 0.00 0.00 91 1023.7
20260510043126 34 350 0.0 0.0 0.00 0.20 0.00 91 1024.4
20260510043045 34 0.0 0.0 0.00 0.00 0.00 90 1023.7
20260510041548 34 0.0 0.0 0.00 0.00 0.00 90 1023.8
20260510041527 34 350 0.0 0.0 0.00 0.20 0.00 90 1024.5
20260510040059 35 350 0.0 0.0 0.00 0.20 0.00 90 1024.5
20260510034557 36 350 0.0 0.0 0.00 0.20 0.00 91 1024.5
20260510034555 36 0.0 0.0 0.00 0.00 0.00 91 1023.9
20260510033114 36 350 0.0 0.0 0.00 0.20 0.00 91 1024.6
20260510033044 36 0.0 0.0 0.00 0.00 0.00 90 1023.9
20260510031600 37 0.0 0.0 0.00 0.00 0.00 90 1024.1
20260510031508 36 350 0.0 0.0 0.00 0.20 0.00 91 1024.8
20260510030047 36 0.0 0.0 0.00 0.00 0.00 91 1024.2
20260510030009 36 350 0.0 0.0 0.00 0.20 0.00 92 1024.9
20260510024658 35 0.0 0.0 0.00 0.00 0.00 90 1024.0
20260510023107 35 350 0.0 0.0 0.00 0.20 0.00 91 1024.8
20260510023056 35 0.0 0.0 0.00 0.00 0.00 90 1024.1
20260510021606 34 350 0.0 0.0 0.00 0.20 0.00 90 1024.8
20260510021547 35 0.0 0.0 0.00 0.00 0.00 90 1024.0
20260510020128 35 350 0.0 2.0 0.00 0.20 0.00 90 1024.8
20260510020051 35 0.0 0.0 0.00 0.00 0.00 89 1024.1
20260510014549 36 0.0 0.0 0.00 0.00 0.00 89 1024.1
20260510014538 35 350 0.0 2.0 0.00 0.20 0.00 90 1024.9
20260510013101 36 0.0 0.0 0.00 0.00 0.00 90 1024.2
20260510011551 34 79 0.0 0.0 0.00 0.20 0.00 88 1024.9
20260510011544 34 0.0 0.0 0.00 0.00 0.00 88 1024.2
20260510010119 34 79 0.0 0.0 0.00 0.20 0.00 88 1024.9
20260510010044 35 0.0 0.0 0.00 0.00 0.00 88 1024.3
20260510004608 35 79 0.0 0.0 0.00 0.20 0.00 88 1025.0
20260510004543 35 0.0 0.0 0.00 0.00 0.00 88 1024.4
20260510003123 35 79 0.0 0.0 0.00 0.20 0.00 88 1025.2
20260510003054 35 0.0 0.0 0.00 0.00 0.00 87 1024.6
20260510001545 35 0.0 0.0 0.00 0.00 0.00 87 1024.7
20260510001509 35 79 0.0 0.0 0.00 0.20 0.00 88 1025.3
20260510000046 35 0.0 0.0 0.00 0.00 0.00 86 1024.8
20260510000012 35 79 0.0 0.0 0.00 0.20 0.00 87 1025.3
20260509234550 35 79 0.0 0.0 0.00 0.20 0.00 86 1025.5
20260509234545 36 0.0 0.0 0.00 0.00 0.00 86 1024.9